H-2A DEB *

Satellite information

Favourite Embed

Satellite Type and Status

DEBRISIN ORBIT

Key statistics

Satellite H-2A DEB * at a glance.

Uptime

2444

Days in orbit

Revolutions

≈ 14.6

Per day

Orbit

SSO

Sun Synchronous Orbit

Inclination

98.0

Latest

Satellite identification and parameters

Extended collection of information and parameters for H-2A DEB *.

Object identification

Identified? True

Debris? True

Object name: H-2A DEB *

International designator: 2018-084DF

Object number (NORAD): 48551

Object ID (CCSDS): 48551

Country: JAPAN (JPN)

Current information (Y/N): Y

RCS size: SMALL

Orbital parameters

Period: 98.302 minutes

Inclination: 97.9948 deg

SMA: 7055.615 km

Apoapsis: 698.933 km

Periapsis: 656.027 km

RAAN: 64.4838 deg

Eccentricy: 0.0030406

Argument of periapsis: 12.6798 deg

Mean anomaly: 347.5164 deg

Mean motion: 14.64874654 rev/day

Mean motion (dot): 0.00000941 rev/day2

B* drag term: 0.00018386 1/REarth

Two-line elements (TLE)

Creation date: July 8, 2025, 2:27 a.m.

Reference frame: TEME

Reference center: EARTH

Epoch: July 7, 2025, 9:39 p.m. UTC

TLE line 0: 0 H-2A DEB *

TLE line 1: 1 48551U 18084DF 25188.90248057 .00000941 00000-0 18386-3 0 9996

TLE line 2: 2 48551 97.9948 64.4838 0030406 12.6798 347.5164 14.64874654231634

Live tracking on map

Real-time ground track for satellite H-2A DEB *.

In-orbit conjunctions

A list of the most updated potential collisions computed for object H-2A DEB *.

Target Orbit TCA Probability of collision Miss distance Type
CZ-4 DEB SSO 2025-06-09 13:31:45 0.0001061079 571.0 (m) DEBRIS
COSMOS 2251 DEB LEO 2025-04-12 16:35:37 0.0002732156 54.0 (m) DEBRIS
CZ-6A DEB LEO 2024-10-24 16:31:30 0.0001351359 390.0 (m) DEBRIS

Associated space launch

KhalifaSat is an Earth observation satellite for UAE. KhalifaSat will provide high-resolution imagery of Earth to be used for various purposes, including urban planning, change monitoring, area classification, monitoring environmental change and aiding relief efforts for natural disasters. GOSAT 2 (Greenhouse gases Observing SATellite 2) is a Japanese satellite dedicated to greenhouse gas measurement from space. It's a follow on to the GOSAT mission and includes such improvements as an ability to gather more precise data and monitor carbon monoxide concentrations.

H-2A DEB * was lifted into orbit during the mission ‘H-IIA 202 | KhalifaSat & GOSAT-2’, on board a H-IIA space rocket.

The launch took place on Oct. 29, 2018, 4:08 a.m. from Yoshinobu Launch Complex LP-1.

For more information about the launch, click the button.

Launch to space H-IIA 202 | KhalifaSat & GOSAT-2
H-IIA 202 | KhalifaSat & GOSAT-2

Agency: N/A

Status: Launch Successful

Launch date: Oct. 29, 2018, 4:08 a.m. UTC

Rocket: H-IIA

Launch pad: Yoshinobu Launch Complex LP-1

Location: Tanegashima Space Center, Japan

...

Latest news about this satellite

News about space launch
Japan Launches UAE's KhalifaSat and Climate-Monitoring Satellite Into Orbit


Newsletter sign-up

Weekly statistics, charts and insights to help you stay on top of the space industry.